Location: Rometta
(44.2000°N, 10.0500°E)
Time: 17:33:04
(UTC+00:00)

SL-14 R/B - Pass Details

Date: 20 January 2021
Orbit: 520 x 553 km, 82.4° (Epoch: 28 February)

Event Time Altitude Azimuth Distance (km) Brightness Sun altitude
Rises 16:58:06 0° 194° (SSW) 2,637 7.3 -8.1°
Reaches altitude 10° 17:00:14 10° 197° (SSW) 1,757 6.4 -8.5°
Maximum altitude 17:04:04 65° 280° (W) 583 3.7 -9.2°
Drops below altitude 10° 17:07:58 10° 3° (N) 1,789 5.7 -9.8°
Sets 17:10:09 0° 6° (N) 2,690 6.6 -10.2°
